Regional Weather Roundup
Issued by NWS

Home | Current Version | Previous Version | Graphics & Text | Print | Product List | Glossary On
Versions: 1 2 3 4 5 6 7 8 9 10 11 12 13 14 15 16 17 18 19 20 21 22 23 24 25 26 27 28 29 30 31 32 33 34 35 36 37 38 39 40 41 42 43 44 45 46 47 48 49 50
000
ASUS43 KOAX 200902
RWRNE

WEATHER ROUNDUP FOR NEBRASKA
NATIONAL WEATHER SERVICE OMAHA NE
400 AM CDT MON OCT 20 2014

NOTES: SATELLITE DATA IS BEING USED TO AUGMENT CLOUD COVER ABOVE
       12000 FEET.
       "FAIR" INDICATES FEW OR NO CLOUDS BELOW 12,000 FEET WITH NO
       SIGNIFICANT WEATHER AND/OR OBSTRUCTIONS TO VISIBILITY.

  * THESE STATIONS DO NOT REPORT WEATHER SUCH AS RAIN...SNOW OR FOG.

NEZ001>004-019>022-054>056-201000-
NEBRASKA PANHANDLE

CITY           SKY/WX    TMP DP  RH WIND       PRES   REMARKS
SCOTTSBLUFF    CLEAR     37  35  92 NW6       30.13S WCI  32
ALLIANCE       CLEAR     35  32  88 W3        30.12F
CHADRON        CLEAR     35  33  92 W3        30.10S
KIMBALL        CLEAR     40  34  81 W5        30.14F
SIDNEY         CLEAR     38  33  82 W8        30.14S WCI  32
$$

NEZ057>060-069>072-079>082-201000-
SOUTHWEST NEBRASKA

CITY           SKY/WX    TMP DP  RH WIND       PRES   REMARKS
NORTH PLATTE   CLEAR     35  33  92 NW6       30.10R WCI  30
IMPERIAL       CLEAR     45  37  73 W5        30.12S
LEXINGTON      CLEAR     43  40  91 W7        30.07S
MCCOOK         CLEAR     40  38  93 SW7       30.09S
OGALLALA       CLEAR     38  35  91 W5        30.11F WCI  34
$$

NEZ005>010-023>029-035>040-094-201000-
NORTH CENTRAL NEBRASKA

CITY           SKY/WX    TMP DP  RH WIND       PRES   REMARKS
VALENTINE      CLEAR     37  33  85 W6        30.09S WCI  32
AINSWORTH      CLEAR     43  36  76 CALM      30.08S
BROKEN BOW     CLEAR     38  34  85 CALM      30.07R
O`NEILL        CLEAR     43  38  83 NW5       30.06S
ORD            CLEAR     42  38  85 NW7       30.05S
THEDFORD       CLEAR     40  36  85 W6        30.10S
$$

NEZ041-046>049-061>064-073>077-083>087-201000-
SOUTH CENTRAL NEBRASKA

CITY           SKY/WX    TMP DP  RH WIND       PRES   REMARKS
GRAND ISLAND   CLEAR     45  41  86 W6        30.04S
AURORA         CLEAR     46  44  91 W5        30.03S
HASTINGS       CLEAR     49  43  80 W5        30.04S
HEBRON         CLEAR     44  42  91 CALM      30.03S
HOLDREGE       CLEAR     47  43  87 CALM      30.05S
KEARNEY *      CLEAR     45  41  87 W6        30.06S
YORK           CLEAR     46  45  93 NW6       30.03S
$$

NEZ011>018-030>034-042>045-201000-
NORTHEAST NEBRASKA

CITY           SKY/WX    TMP DP  RH WIND       PRES   REMARKS
NORFOLK        CLEAR     43  38  82 W5        30.02R
ALBION         CLEAR     41  37  83 N6        30.04S
BLAIR          CLEAR     51  46  81 N7        29.98S
COLUMBUS *     CLEAR     41  36  81 W3        30.02S
FREMONT        CLEAR     46  44  92 NW3       30.00R
TEKAMAH        CLEAR     46  42  86 N9        29.99R
WAYNE          CLEAR     43  38  84 CALM      30.02S
$$

NEZ050>053-065>068-078-088>093-201000-
SOUTHEAST NEBRASKA

CITY           SKY/WX    TMP DP  RH WIND       PRES   REMARKS
LINCOLN        CLEAR     48  44  86 CALM      30.01S
OMAHA EPPLEY   CLEAR     47  45  93 NW7       29.98S
BEATRICE       CLEAR     45  44  97 CALM      30.01F
FALLS CITY     CLEAR     52  48  86 W6        29.98F
NEBRASKA CITY  CLEAR     54  47  78 W10       29.97F
PLATTSMOUTH    CLEAR     53  47  80 W7        29.97S
$$

NEZ044-045-051>053-067-201000-
OMAHA AREA

CITY           SKY/WX    TMP DP  RH WIND       PRES   REMARKS
OMAHA EPPLEY   CLEAR     47  45  93 NW7       29.98S
BLAIR          CLEAR     51  46  81 N7        29.98S
FREMONT        CLEAR     46  44  92 NW3       30.00R
MILLARD        CLEAR     48  46  93 CALM      29.98S
OFFUTT AFB     CLEAR     47  47 100 NW5       29.97S
PLATTSMOUTH    CLEAR     53  47  80 W7        29.97S
WAHOO          FAIR      51  43  72 CALM      29.99S
$$


USA.gov is the U.S. government's official web portal to all federal, state and local government web resources and services.